This demonstration page uses our WeatherBlox Daily Observations layout. Learn more.

Hourly Observations for August 15, 2016

Temp ( °F °C ) Dew Point ( °F °C ) Humidity (%) Winds ( mph kmh ) Pressure ( in mb ) Visibility ( mi km ) Precip ( " mm )
12:15 am 00:15 Clear 66 18.8 59 15 79 79 SSE 7 11 30 1016 10 16.09344 0 0
12:35 am 00:35 Clear 65 18.4 59 14.9 80 80 SSE 7 11 30 1016 10 16.09344 0 0
12:55 am 00:55 Clear 65 18.5 58 14.7 79 79 SSE 7 11 30 1016 10 16.09344 0 0
1:15 am 01:15 Clear 65 18.5 58 14.2 76 76 SSE 7 11 30 1016 10 16.09344 0 0
1:35 am 01:35 Clear 65 18.6 57 13.9 74 74 SSE 8 13 30 1016 10 16.09344 0 0
1:55 am 01:55 Clear 66 18.7 56 13.6 72 72 SSE 8 13 30 1016 10 16.09344 0 0
2:15 am 02:15 Clear 66 18.7 56 13.6 72 72 SSE 8 13 30 1016 10 16.09344 0 0
2:35 am 02:35 Clear 65 18.6 57 14 75 75 SSE 7 11 30 1016 10 16.09344 0 0
2:55 am 02:55 Clear 65 18.2 57 14.1 77 77 SSE 6 9 30 1016 10 16.09344 0 0
3:15 am 03:15 Clear 64 17.9 58 14.4 80 80 SE 7 11 30 1016 10 16.09344 0 0
3:35 am 03:35 Clear 63 17.2 58 14.4 84 84 SE 7 11 30 1016 10 16.09344 0 0
3:55 am 03:55 Clear 63 17 58 14.5 85 85 SSE 7 11 30 1016 10 16.09344 0 0
4:15 am 04:15 Clear 62 16.7 58 14.3 86 86 SE 6 9 30 1016 10 16.09344 0 0
4:35 am 04:35 Clear 62 16.5 58 14.4 87 87 SSE 6 9 30.03 1017 10 16.09344 0 0
4:55 am 04:55 Clear 63 17.2 58 14.5 84 84 SSE 7 11 30 1016 10 16.09344 0 0
5:15 am 05:15 Clear 64 18 58 14.2 79 79 SSE 8 13 30 1016 10 16.09344 0 0
5:35 am 05:35 Clear 65 18.1 57 14.1 78 78 SSE 6 9 30 1016 10 16.09344 0 0
5:55 am 05:55 Clear 62 16.7 57 14 84 84 SE 5 7 30 1016 10 16.09344 0 0
6:15 am 06:15 Clear 59 15.2 56 13.3 89 89 Calm 30.03 1017 10 16.09344 0 0
6:35 am 06:35 Clear 59 14.8 56 13.1 90 90 SE 7 11 30.03 1017 10 16.09344 0 0
6:55 am 06:55 Sunny 59 15.2 56 13.6 90 90 SE 5 7 30.03 1017 10 16.09344 0 0
7:15 am 07:15 Sunny 60 15.3 56 13.6 90 90 SSE 6 9 30.03 1017 10 16.09344 0 0
7:35 am 07:35 Sunny 62 16.6 58 14.3 86 86 SSE 8 13 30 1016 10 16.09344 0 0
7:55 am 07:55 Sunny 65 18.3 59 14.9 81 81 SE 9 15 30 1016 10 16.09344 0 0
8:15 am 08:15 Sunny 65 18.5 59 15.1 81 81 SSE 9 15 30 1016 10 16.09344 0 0
8:35 am 08:35 Sunny 66 18.9 59 15.1 79 79 SSE 12 19 30 1016 10 16.09344 0 0
8:55 am 08:55 Sunny 68 19.8 60 15.3 75 75 SSE 13 20 30 1016 10 16.09344 0 0
9:15 am 09:15 Sunny 69 20.6 60 15.3 72 72 SSE 10 17 29.97 1015 10 16.09344 0 0
9:35 am 09:35 Sunny 71 21.7 59 15.1 66 66 SSE 15 24 29.97 1015 10 16.09344 0 0
9:55 am 09:55 Sunny 73 23 60 15.4 62 62 SSE 14 22 29.94 1014 10 16.09344 0 0
10:15 am 10:15 Sunny 75 23.7 60 15.6 61 61 SSE 14 22 29.91 1013 10 16.09344 0 0
10:35 am 10:35 Sunny 77 25.1 59 15.1 54 54 SSE 14 22 29.91 1013 10 16.09344 0 0
10:55 am 10:55 Sunny 78 25.8 59 15.2 52 52 S 15 24 29.94 1014 10 16.09344 0 0
11:15 am 11:15 Sunny 80 26.5 59 15 49 49 S 16 26 29.91 1013 10 16.09344 0 0
11:35 am 11:35 Sunny 79 26.3 60 15.4 51 51 S 20 31 29.91 1013 10 16.09344 0 0
11:55 am 11:55 Sunny 80 26.7 58 14.6 47 47 S 18 30 29.91 1013 10 16.09344 0 0
12:15 pm 12:15 Sunny 81 27.1 58 14.5 46 46 S 15 24 29.88 1012 10 16.09344 0 0
12:35 pm 12:35 Sunny 82 27.6 59 14.9 46 46 S 16 26 29.88 1012 10 16.09344 0 0
12:55 pm 12:55 Sunny 82 28 58 14.5 44 44 S 13 20 29.88 1012 10 16.09344 0 0
1:15 pm 13:15 Sunny 84 28.8 58 14.4 41 41 S 16 26 29.88 1012 10 16.09344 0 0
1:35 pm 13:35 Sunny 85 29.5 58 14.2 39 39 SSE 14 22 29.88 1012 10 16.09344 0 0
1:55 pm 13:55 Sunny 86 29.9 58 14.3 39 39 SSE 13 20 29.88 1012 10 16.09344 0 0
2:15 pm 14:15 Sunny 86 30.1 57 14.1 38 38 S 15 24 29.85 1011 10 16.09344 0 0
2:35 pm 14:35 Sunny 86 30.1 57 14.1 38 38 S 15 24 29.85 1011 10 16.09344 0 0
2:55 pm 14:55 Sunny 87 30.7 57 14.1 36 36 SSE 12 19 29.83 1010 10 16.09344 0 0
3:15 pm 15:15 Sunny 87 30.8 57 13.7 35 35 S 10 17 29.83 1010 10 16.09344 0 0
3:35 pm 15:35 Sunny 88 31 56 13.6 35 35 S 16 26 29.83 1010 10 16.09344 0 0
3:55 pm 15:55 Sunny 88 31.2 56 13.6 34 34 S 12 19 29.83 1010 10 16.09344 0 0
4:15 pm 16:15 Sunny 88 31 55 12.7 33 33 SSE 16 26 29.83 1010 10 16.09344 0 0
4:35 pm 16:35 Sunny 89 31.4 56 13.5 34 34 SSE 13 20 29.83 1010 10 16.09344 0 0
4:55 pm 16:55 Sunny 89 31.5 57 13.7 34 34 SSE 15 24 29.83 1010 10 16.09344 0 0
5:15 pm 17:15 Sunny 89 31.4 57 13.9 34 34 SSE 14 22 29.8 1009 10 16.09344 0 0
5:35 pm 17:35 Sunny 88 31 57 14 35 35 SSE 10 17 29.83 1010 10 16.09344 0 0
5:55 pm 17:55 Sunny 87 30.8 58 14.7 38 38 SSE 8 13 29.83 1010 10 16.09344 0 0
6:15 pm 18:15 Sunny 87 30.7 58 14.5 37 37 SSE 13 20 29.83 1010 10 16.09344 0 0
6:35 pm 18:35 Sunny 85 29.6 58 14.6 40 40 SSE 10 17 29.83 1010 10 16.09344 0 0
6:55 pm 18:55 Sunny 85 29.6 57 13.9 38 38 SSE 12 19 29.83 1010 10 16.09344 0 0
7:15 pm 19:15 Sunny 84 28.9 58 14.7 42 42 SE 9 15 29.83 1010 10 16.09344 0 0
7:35 pm 19:35 Sunny 82 28 59 15 45 45 SE 9 15 29.83 1010 10 16.09344 0 0
7:55 pm 19:55 Sunny 79 26.2 61 16 53 53 SE 9 15 29.85 1011 10 16.09344 0 0
8:15 pm 20:15 Sunny 77 25 61 16.3 59 59 SE 8 13 29.88 1012 10 16.09344 0 0
8:35 pm 20:35 Clear 75 24.1 62 16.5 63 63 SE 7 11 29.88 1012 10 16.09344 0 0
8:55 pm 20:55 Clear 73 22.7 63 17 70 70 SE 8 13 29.91 1013 10 16.09344 0 0
9:15 pm 21:15 Clear 72 22.4 62 16.7 70 70 SE 8 13 29.91 1013 10 16.09344 0 0
9:35 pm 21:35 Clear 73 22.5 63 17 71 71 SE 9 15 29.91 1013 10 16.09344 0 0
9:55 pm 21:55 Clear 73 22.5 62 16.6 69 69 SE 9 15 29.94 1014 10 16.09344 0 0
10:15 pm 22:15 Clear 72 22.2 62 16.5 70 70 SSE 12 19 29.94 1014 10 16.09344 0 0
10:35 pm 22:35 Clear 72 22.2 61 16.2 69 69 SSE 13 20 29.94 1014 10 16.09344 0 0
10:55 pm 22:55 Clear 72 22 61 16 69 69 SE 13 20 29.94 1014 10 16.09344 0 0
11:15 pm 23:15 Clear 71 21.5 61 16 71 71 SSE 10 17 29.94 1014 10 16.09344 0 0
11:35 pm 23:35 Clear 71 21.5 61 16 71 71 SSE 10 17 29.94 1014 10 16.09344 0 0
11:55 pm 23:55 Clear 70 21.3 61 16.1 72 72 SSE 9 15 29.94 1014 10 16.09344 0 0

Powered by AerisWeather